Wind_Speed
4 5 6 7 7 7 6 6 6 7 7 6 5 5 5 5 4 3 3 4 5 6 7 9 11 12 12 12 12 12 12 12 11 10 9 8 7 6 5 4 3 2 2 3 4 5 6 7 9
4 5 6 6 7 7 5 6 7 8 8 8 8 7 7 7 6 5 4 4 5 6 6 8 9 10 11 11 12 12 12 12 11 10 9 8 7 6 5 4 3 2 2 2 3 4 5 7 8
5 5 5 7 7 6 5 6 7 8 8 9 9 9 8 8 8 6 5 5 5 6 6 6 8 9 9 10 10 11 11 11 11 10 8 8 7 6 5 4 3 2 1 2 3 4 4 5 7
5 5 5 6 6 5 5 6 6 7 8 9 10 10 10 9 9 8 6 5 5 5 5 5 6 7 7 8 9 9 9 10 10 10 9 8 6 5 4 4 3 2 1 1 2 3 4 4 6
5 5 5 5 5 5 4 5 5 6 8 9 10 11 10 10 10 9 8 7 6 5 4 4 4 5 5 6 6 7 8 8 9 9 8 8 6 5 4 4 3 2 1 1 2 2 3 4 5
5 5 4 4 4 3 3 3 4 5 6 8 9 10 10 10 10 9 9 8 6 5 3 3 3 3 3 4 4 5 5 6 7 7 7 7 6 5 4 3 3 2 1 1 1 2 3 4 4
5 5 5 4 4 3 2 2 2 3 5 6 7 8 9 9 9 9 9 8 6 4 3 2 1 1 0 1 2 2 3 4 5 5 6 6 5 4 4 3 2 1 0 1 2 2 3 3 4
6 6 6 6 5 4 4 3 2 2 2 3 4 5 6 6 7 7 7 7 6 4 3 1 1 1 2 2 2 2 2 3 4 4 5 4 4 3 3 2 2 1 1 2 2 2 2 3 4
8 7 7 7 7 6 6 4 3 2 0 1 2 2 3 3 4 5 5 5 5 4 3 3 2 2 3 4 5 5 5 5 4 5 5 5 4 3 3 2 2 2 3 3 3 3 3 4 5
10 9 9 9 9 8 7 7 5 4 3 3 3 3 3 4 3 4 4 5 5 5 5 5 5 4 5 6 7 7 7 7 6 6 6 6 5 4 4 4 3 3 4 4 4 4 4 4 5
11 11 10 10 10 10 10 9 8 7 6 6 6 7 7 7 6 6 5 6 6 7 7 7 7 7 7 7 8 8 9 9 9 9 8 8 7 7 6 5 5 5 5 5 5 5 5 6 6
13 13 12 12 12 12 12 13 12 12 11 10 10 11 11 10 10 9 8 8 8 9 9 10 11 10 10 10 10 10 11 11 11 11 10 10 10 9 8 7 7 6 6 6 6 7 7 7 7
15 15 15 15 15 15 16 16 16 15 15 15 15 15 14 14 14 13 13 12 12 12 12 12 13 13 13 13 12 12 12 12 12 12 12 12 12 11 11 10 9 9 8 8 8 8 8 8 8
17 17 17 18 18 19 20 20 20 19 19 19 18 18 18 17 17 17 17 16 16 15 16 16 16 16 16 16 15 14 14 14 14 14 14 14 14 13 13 12 12 11 10 10 10 10 9 10 10
19 20 21 21 22 22 23 25 24 23 22 22 22 21 21 21 21 21 20 20 20 19 19 19 19 19 18 18 17 17 16 16 16 16 16 16 16 15 15 14 14 14 13 13 13 12 12 11 11
22 23 24 25 26 26 27 29 27 27 26 26 25 24 24 24 24 24 24 24 24 24 23 23 22 21 20 20 19 19 18 18 17 17 17 17 17 17 16 16 16 16 16 15 16 15 14 14 14
25 26 28 29 29 30 30 32 31 30 30 29 29 28 28 28 28 28 28 27 27 26 26 25 23 23 23 22 22 21 21 20 19 19 19 19 19 19 18 18 18 18 17 17 17 17 17 16 16
28 29 31 32 33 33 34 35 35 34 34 33 33 32 32 31 31 31 30 30 29 29 28 27 26 26 26 25 24 23 23 22 21 21 21 22 21 20 20 19 19 19 19 19 19 19 18 19 19
31 32 33 35 36 36 38 38 39 38 37 37 37 36 35 35 34 34 33 33 33 32 31 31 30 30 29 27 27 27 26 25 25 24 23 23 23 22 22 21 21 21 21 21 20 21 21 21 21
32 34 35 37 38 38 39 40 40 40 40 40 39 38 37 36 36 35 35 35 35 35 35 35 34 33 32 30 30 30 30 29 29 28 27 25 25 24 24 24 22 22 22 21 21 22 22 22 22
32 34 36 38 39 39 40 40 40 39 39 39 38 37 37 35 35 35 35 35 36 36 36 37 36 36 35 34 34 35 34 34 34 32 30 27 27 26 26 25 24 23 22 22 23 23 23 23 23
34 35 37 38 38 39 39 38 40 37 36 35 35 34 33 33 33 33 33 34 34 35 37 38 39 39 38 38 38 38 37 38 37 35 32 30 27 26 25 24 24 23 23 23 23 23 23 23 23
35 37 38 39 39 39 39 38 38 35 34 33 32 32 31 31 31 32 32 33 35 36 36 37 39 40 40 41 41 41 40 41 40 39 34 31 29 27 25 24 24 23 23 22 22 22 22 23 24
35 36 37 38 38 39 36 35 36 34 31 30 30 30 30 30 31 31 32 34 35 36 37 38 39 40 41 42 43 43 42 43 43 40 36 32 29 26 25 23 23 23 21 21 22 22 23 23 23
35 35 35 34 32 31 31 31 33 31 28 28 27 27 27 28 29 30 31 32 33 35 36 36 37 39 41 42 42 42 43 41 40 39 36 32 28 25 23 22 21 20 20 20 21 21 22 22 23
31 31 29 27 25 23 23 24 26 25 25 24 24 24 24 25 26 27 28 30 31 31 33 34 34 35 37 39 41 41 41 40 39 36 33 28 23 21 20 19 18 19 19 20 20 21 21 21 21
28 25 22 19 17 18 18 19 20 20 20 20 20 21 21 23 24 25 26 27 28 28 28 29 31 32 33 35 37 38 36 35 32 30 27 23 19 17 15 15 16 17 19 19 20 20 20 20 21
23 20 16 12 9 9 12 13 12 13 14 14 15 17 18 19 20 20 21 22 22 23 22 23 25 26 26 26 28 29 28 26 25 22 19 16 14 13 13 15 16 17 18 19 20 20 20 20 21
20 16 13 8 3 2 3 5 5 5 7 8 10 12 13 13 13 14 14 15 16 17 17 16 18 19 19 20 21 20 19 18 17 14 11 10 10 12 14 16 17 18 19 19 19 20 20 20 21
19 17 13 10 7 4 3 2 1 1 2 4 5 5 6 7 7 8 8 8 9 10 10 10 10 12 12 12 12 11 11 11 10 9 8 9 12 14 15 17 17 18 19 19 19 20 20 21 21
Wind_Direction
111 95 86 81 76 64 62 69 79 88 91 85 72 58 48 49 58 84 107 122 122 110 92 80 75 75 73 70 67 64 62 63 66 69 71 73 75 81 90 97 110 132 159 183 199 212 222 225 224
117 102 90 81 71 61 68 76 85 89 89 85 77 68 61 57 60 78 104 124 130 126 107 88 79 76 72 68 66 64 61 60 60 62 66 69 71 78 88 96 104 122 150 186 204 213 225 225 223
124 110 93 85 73 74 78 82 88 91 89 87 79 71 65 62 63 71 89 115 130 133 121 99 84 78 73 68 66 64 60 57 57 58 61 65 68 76 86 94 104 120 148 190 209 216 223 220 216
133 117 102 91 80 84 85 87 89 93 92 88 82 75 69 67 67 70 79 99 119 130 128 108 93 82 75 67 65 63 59 56 55 54 56 59 64 71 82 91 103 123 146 187 216 224 218 213 210
145 127 112 103 94 88 85 88 89 94 97 90 83 76 71 68 67 67 72 85 103 119 131 118 101 87 75 66 62 60 57 53 49 48 49 50 54 62 72 78 89 109 148 189 218 225 219 211 209
159 145 134 131 122 105 96 98 91 95 94 91 85 78 71 68 67 66 68 75 86 101 123 126 109 96 80 65 56 51 47 43 38 38 40 42 44 52 62 67 72 83 125 214 222 222 221 219 217
177 168 168 172 164 156 149 130 109 103 97 91 85 77 71 69 67 65 64 67 71 79 93 105 114 127 110 49 37 28 24 21 17 19 23 28 31 39 47 53 55 53 345 272 250 235 224 225 222
195 190 192 196 190 188 184 181 163 120 97 85 81 72 66 61 59 59 58 57 57 56 53 39 360 275 267 270 281 305 326 339 343 348 354 0 7 16 26 24 18 2 325 300 281 264 243 233 229
211 209 210 206 200 196 199 206 215 225 250 47 48 39 33 31 33 37 39 38 35 27 16 357 331 300 283 275 274 279 287 294 302 310 319 326 335 341 341 336 324 314 312 308 299 285 269 252 242
222 223 220 215 214 215 214 219 231 247 266 288 303 314 318 324 335 347 356 358 357 352 344 334 321 306 292 280 275 276 278 282 282 286 294 299 303 310 309 305 295 293 298 300 300 294 275 264 253
230 232 231 228 227 225 222 227 237 248 259 270 282 289 292 296 302 310 316 320 322 322 320 315 309 300 291 284 278 276 277 278 276 275 277 280 283 288 290 289 288 283 284 291 295 291 279 269 264
234 236 237 236 234 232 232 234 240 246 255 263 271 278 282 286 290 292 295 298 301 302 302 303 301 296 290 284 279 275 275 274 272 271 270 270 271 274 277 276 277 280 280 282 288 285 280 274 269
236 238 241 241 243 244 244 245 245 249 254 259 266 272 277 281 284 286 287 288 290 291 292 293 294 294 290 285 278 275 274 270 266 266 266 264 264 265 268 269 270 274 278 281 285 283 277 276 273
242 244 246 247 249 250 252 253 254 254 258 262 266 271 275 278 281 283 285 286 287 288 290 291 291 290 288 284 279 274 272 269 266 264 264 262 260 260 263 265 266 269 274 275 278 279 277 276 275
247 249 252 252 254 255 256 257 258 259 261 264 267 270 273 276 278 280 282 283 285 287 288 289 288 287 285 282 278 274 270 267 266 265 264 260 258 257 260 260 261 264 269 272 272 275 276 276 275
251 253 255 256 257 257 258 261 261 262 263 265 266 268 270 273 275 277 279 281 283 285 287 287 285 285 284 281 279 275 272 269 266 264 263 259 255 255 257 257 260 263 266 268 268 271 272 274 275
256 257 258 259 259 259 260 262 263 263 264 265 266 267 268 270 272 274 276 278 279 280 283 283 281 283 283 281 278 275 272 270 267 263 260 257 255 254 254 255 258 261 265 265 265 269 272 273 275
261 262 263 263 263 263 263 264 265 265 266 266 266 266 267 268 269 271 272 272 273 274 276 276 277 280 281 279 278 275 272 271 268 263 259 256 255 254 253 254 256 260 263 263 265 267 270 271 273
267 267 267 267 267 267 266 267 268 268 268 268 267 267 267 267 267 267 268 269 270 270 269 271 271 275 275 274 274 273 271 270 268 265 260 256 254 253 253 254 257 260 261 262 263 265 268 271 272
270 270 270 270 270 269 269 269 269 269 269 269 269 268 267 267 266 266 266 266 266 266 266 266 266 268 269 269 271 271 270 269 267 263 259 258 255 253 254 256 257 258 261 261 262 263 266 270 272
276 274 274 273 273 272 272 272 270 270 270 270 270 269 268 267 266 267 266 265 264 263 263 263 263 263 263 264 267 268 268 267 266 264 261 260 256 253 253 255 256 257 259 260 263 264 266 270 271
281 280 278 276 275 274 273 274 273 271 271 271 270 269 268 267 266 265 265 264 264 263 261 260 259 259 259 260 264 266 264 264 264 262 261 261 256 253 255 254 254 255 258 261 264 266 267 270 274
287 285 281 277 275 273 273 272 272 271 270 269 269 269 269 268 267 266 265 264 263 262 262 260 257 255 256 258 260 262 261 262 262 262 259 259 256 256 254 253 253 255 257 261 265 267 269 271 274
294 291 286 281 277 272 270 269 268 268 267 267 267 267 267 269 268 267 266 265 263 262 261 259 257 255 255 255 257 259 260 261 262 262 261 258 256 254 251 253 253 255 259 263 267 269 270 271 272
300 297 293 288 281 274 268 264 262 264 262 262 263 264 265 266 267 268 269 268 265 262 260 259 257 255 255 256 258 258 261 260 262 263 261 259 256 252 251 250 252 257 261 263 265 268 269 270 271
308 304 298 290 280 270 264 259 259 257 257 257 257 259 260 263 265 268 268 267 266 264 262 259 257 256 256 255 257 259 260 262 264 264 260 255 250 249 251 250 254 258 262 264 266 267 269 270 271
320 316 307 295 283 268 259 257 259 256 253 252 254 256 258 261 265 267 266 266 265 264 263 259 256 256 256 256 257 257 260 260 261 260 253 248 246 248 247 249 254 258 261 263 266 268 269 270 271
335 334 329 316 295 269 254 249 258 255 253 256 259 259 259 262 265 265 264 264 264 262 262 257 255 254 254 255 257 258 257 254 256 252 245 243 244 244 245 250 255 260 262 264 265 267 268 269 270
354 357 360 1 351 249 242 258 251 247 252 260 264 263 261 263 262 261 261 261 259 256 258 257 251 250 251 251 252 252 246 242 239 231 233 237 242 246 250 256 260 263 264 264 266 267 269 270 271
14 23 32 43 60 88 87 62 210 282 278 276 277 268 256 259 257 256 259 258 253 248 247 249 245 245 243 243 239 230 229 224 218 223 233 245 251 256 259 264 265 265 266 268 270 270 270 270 271
Height
5913 5913 5913 5915 5916 5916 5915 5915 5914 5914 5913 5913 5912 5911 5911 5910 5910 5913 5910 5908 5909 5909 5909 5909 5908 5908 5908 5907 5907 5906 5905 5904 5903 5902 5901 5900 5899 5898 5898 5898 5897 5897 5897 5897 5898 5898 5898 5898 5899
5913 5913 5915 5916 5916 5916 5916 5916 5915 5914 5914 5913 5912 5911 5910 5910 5909 5909 5908 5908 5908 5909 5909 5909 5909 5909 5909 5908 5908 5907 5906 5905 5904 5903 5902 5901 5900 5899 5898 5898 5897 5897 5897 5897 5897 5897 5897 5897 5898
5914 5914 5916 5916 5916 5917 5917 5916 5915 5915 5914 5913 5912 5912 5911 5910 5909 5908 5908 5908 5908 5909 5909 5910 5910 5910 5909 5909 5909 5908 5907 5906 5905 5904 5903 5901 5900 5899 5899 5898 5897 5897 5897 5896 5896 5896 5896 5896 5897
5915 5916 5917 5917 5917 5917 5917 5917 5916 5915 5915 5914 5913 5912 5911 5910 5909 5909 5908 5908 5908 5909 5909 5910 5910 5910 5910 5909 5909 5909 5908 5907 5906 5905 5904 5902 5901 5900 5899 5898 5897 5897 5896 5896 5896 5896 5896 5896 5896
5915 5916 5917 5917 5917 5918 5918 5917 5917 5916 5915 5914 5914 5913 5912 5911 5910 5909 5908 5908 5908 5909 5909 5910 5910 5910 5910 5910 5909 5909 5908 5907 5906 5905 5904 5903 5902 5900 5899 5898 5898 5897 5896 5896 5895 5895 5895 5895 5895
5916 5916 5917 5917 5918 5918 5918 5918 5917 5917 5916 5915 5914 5914 5913 5912 5911 5910 5909 5909 5909 5909 5909 5909 5909 5909 5909 5909 5909 5909 5908 5907 5906 5906 5904 5903 5902 5901 5900 5899 5898 5897 5896 5895 5895 5895 5895 5895 5895
5916 5916 5917 5917 5917 5918 5918 5917 5917 5917 5917 5916 5915 5914 5913 5912 5911 5910 5910 5909 5909 5909 5909 5909 5909 5909 5909 5909 5908 5908 5907 5907 5906 5905 5904 5903 5902 5901 5900 5899 5898 5897 5896 5895 5894 5894 5894 5894 5894
5915 5916 5916 5916 5917 5917 5917 5917 5917 5917 5916 5916 5915 5914 5913 5913 5912 5911 5910 5910 5909 5909 5908 5908 5908 5908 5908 5908 5907 5907 5906 5906 5905 5904 5904 5903 5902 5901 5900 5899 5898 5897 5895 5895 5894 5894 5894 5894 5894
5913 5916 5915 5915 5916 5916 5916 5916 5916 5916 5916 5915 5914 5914 5913 5912 5911 5911 5910 5909 5909 5908 5908 5907 5907 5907 5907 5907 5906 5906 5905 5904 5904 5903 5902 5902 5901 5900 5899 5898 5897 5896 5895 5894 5893 5893 5893 5893 5893
5912 5913 5913 5914 5914 5914 5914 5915 5915 5914 5914 5914 5913 5913 5912 5911 5910 5910 5909 5909 5908 5908 5907 5907 5906 5906 5905 5905 5904 5904 5903 5903 5902 5902 5901 5900 5900 5899 5898 5897 5896 5895 5894 5893 5893 5892 5892 5892 5891
5909 5910 5911 5911 5912 5912 5912 5912 5912 5912 5912 5912 5911 5911 5910 5909 5909 5908 5908 5907 5907 5907 5906 5905 5905 5904 5903 5903 5902 5902 5901 5900 5900 5899 5899 5898 5898 5897 5897 5896 5895 5894 5893 5892 5892 5891 5891 5890 5890
5907 5908 5908 5909 5909 5909 5909 5910 5910 5910 5910 5909 5909 5908 5907 5907 5906 5906 5906 5905 5905 5905 5904 5904 5903 5902 5901 5900 5899 5899 5898 5898 5897 5897 5896 5896 5895 5895 5895 5894 5893 5892 5892 5891 5890 5890 5889 5889 5888
5904 5905 5905 5905 5905 5906 5906 5906 5906 5906 5906 5906 5905 5905 5904 5904 5903 5903 5902 5902 5902 5902 5901 5901 5900 5899 5898 5897 5896 5896 5895 5895 5894 5894 5893 5893 5892 5892 5892 5891 5891 5890 5890 5889 5889 5888 5888 5887 5887
5901 5901 5901 5902 5902 5902 5902 5902 5902 5902 5902 5902 5902 5901 5900 5900 5899 5899 5899 5898 5898 5898 5898 5897 5896 5896 5895 5894 5893 5892 5891 5891 5890 5890 5890 5889 5889 5889 5889 5889 5888 5888 5887 5887 5887 5886 5886 5885 5884
5897 5898 5898 5897 5897 5897 5897 5897 5897 5897 5897 5897 5897 5897 5896 5896 5895 5895 5894 5894 5894 5894 5893 5893 5892 5891 5890 5889 5888 5887 5887 5886 5886 5886 5886 5886 5886 5885 5885 5885 5885 5885 5884 5884 5884 5884 5883 5883 5882
5893 5893 5893 5892 5892 5892 5893 5891 5891 5891 5891 5892 5892 5891 5891 5890 5890 5889 5889 5889 5889 5889 5888 5888 5887 5886 5885 5884 5883 5882 5882 5882 5882 5882 5881 5881 5881 5881 5881 5881 5881 5881 5881 5880 5880 5880 5880 5879 5879
5888 5888 5887 5886 5886 5886 5886 5884 5884 5884 5884 5885 5885 5885 5885 5884 5884 5884 5884 5883 5883 5883 5883 5882 5882 5881 5880 5879 5878 5877 5877 5877 5877 5877 5877 5876 5877 5877 5877 5877 5877 5877 5877 5876 5876 5876 5876 5876 5875
5883 5882 5881 5879 5878 5878 5877 5876 5876 5876 5877 5877 5877 5877 5877 5877 5877 5877 5877 5877 5877 5877 5876 5876 5876 5875 5874 5874 5873 5872 5871 5871 5871 5871 5871 5871 5871 5872 5872 5872 5872 5872 5872 5872 5872 5872 5872 5871 5871
5877 5875 5874 5872 5871 5870 5869 5868 5868 5868 5868 5868 5868 5869 5869 5869 5869 5869 5870 5870 5870 5870 5870 5870 5870 5869 5869 5868 5867 5866 5865 5865 5865 5865 5865 5865 5866 5866 5867 5867 5867 5867 5867 5867 5868 5868 5867 5867 5867
5869 5868 5866 5863 5862 5861 5860 5859 5859 5858 5858 5858 5858 5859 5860 5860 5861 5861 5862 5862 5862 5862 5862 5862 5862 5862 5862 5861 5860 5859 5858 5858 5857 5857 5857 5858 5860 5860 5861 5861 5861 5862 5862 5862 5862 5862 5862 5862 5862
5861 5859 5857 5855 5853 5851 5851 5850 5849 5848 5848 5848 5848 5849 5850 5851 5851 5852 5852 5853 5853 5853 5854 5854 5854 5854 5854 5854 5853 5852 5851 5850 5849 5849 5850 5851 5853 5854 5854 5855 5856 5856 5856 5856 5857 5857 5857 5856 5856
5852 5850 5847 5844 5843 5841 5841 5840 5838 5839 5838 5838 5838 5839 5840 5841 5842 5843 5843 5843 5844 5844 5845 5845 5846 5846 5846 5846 5846 5845 5843 5843 5841 5841 5842 5844 5845 5847 5848 5849 5849 5850 5850 5850 5851 5851 5851 5851 5850
5843 5839 5836 5833 5831 5830 5830 5830 5829 5829 5828 5829 5829 5830 5831 5832 5833 5833 5834 5834 5834 5835 5835 5836 5836 5836 5837 5838 5838 5838 5836 5835 5833 5833 5834 5835 5838 5840 5841 5842 5843 5843 5844 5844 5845 5845 5845 5845 5844
5832 5828 5824 5821 5819 5819 5819 5820 5818 5818 5819 5819 5820 5820 5821 5822 5823 5823 5824 5824 5824 5825 5825 5826 5826 5827 5828 5829 5829 5830 5829 5828 5826 5826 5827 5828 5829 5831 5833 5835 5836 5837 5838 5838 5838 5838 5838 5838 5838
5822 5817 5813 5810 5808 5808 5808 5808 5807 5808 5809 5810 5811 5811 5812 5813 5813 5814 5814 5814 5814 5814 5815 5816 5817 5818 5819 5820 5821 5821 5821 5821 5820 5821 5820 5821 5822 5824 5826 5828 5830 5831 5832 5832 5832 5832 5832 5832 5831
5812 5807 5803 5800 5798 5798 5797 5798 5798 5799 5800 5801 5802 5803 5804 5804 5805 5805 5805 5805 5805 5805 5806 5807 5808 5809 5810 5812 5813 5813 5813 5813 5814 5814 5815 5815 5816 5818 5820 5822 5824 5825 5826 5826 5826 5826 5826 5825 5825
5804 5798 5793 5790 5789 5789 5790 5791 5791 5792 5793 5794 5795 5796 5797 5797 5797 5797 5797 5796 5796 5797 5798 5798 5799 5801 5802 5803 5804 5805 5805 5806 5807 5808 5808 5810 5811 5812 5814 5816 5818 5819 5820 5820 5820 5820 5819 5819 5819
5799 5792 5788 5785 5784 5784 5786 5786 5787 5787 5788 5789 5790 5790 5790 5791 5790 5790 5790 5789 5789 5790 5791 5791 5792 5794 5795 5796 5797 5797 5798 5799 5801 5802 5803 5804 5806 5808 5810 5812 5812 5813 5814 5814 5813 5813 5813 5813 5812
5796 5790 5785 5783 5782 5783 5784 5786 5784 5785 5785 5786 5786 5785 5785 5785 5785 5785 5784 5784 5784 5785 5786 5786 5787 5788 5789 5790 5791 5792 5793 5794 5796 5797 5799 5801 5803 5804 5806 5806 5807 5807 5808 5808 5807 5807 5807 5806 5806
5796 5791 5787 5785 5783 5783 5783 5787 5783 5784 5784 5784 5783 5782 5782 5782 5782 5781 5781 5780 5781 5781 5782 5782 5783 5784 5785 5786 5788 5789 5790 5791 5792 5794 5795 5797 5799 5800 5801 5801 5802 5802 5802 5801 5801 5801 5800 5800 5800